Regional Weather Roundup
Issued by NWS Boston, MA

Home | Current Version | Previous Version | Text Only | Print | Product List | Glossary On
Versions: 1 2 3 4 5 6 7 8 9 10 11 12 13 14 15 16 17 18 19 20 21 22 23 24 25 26 27
000
ASUS41 KBOX 310710
RWRBOX

REGIONAL WEATHER ROUNDUP
NATIONAL WEATHER SERVICE TAUNTON MA
300 AM EDT FRI OCT 31 2014

NOTE:  "FAIR" INDICATES FEW OR NO CLOUDS BELOW 12,000 FEET WITH NO
SIGNIFICANT WEATHER AND/OR OBSTRUCTIONS TO VISIBILITY.  THE FOLLOWING
OBSERVATION LOCATIONS DO NOT REPORT PRESENT WEATHER...PROVINCETOWN...
SMITHFIELD...BLOCK ISLAND...KEENE...AND OXFORD.

MAZALL-310800-
EASTERN MASSACHUSETTS

CITY           SKY/WX    TMP DP  RH WIND       PRES   REMARKS
BOSTON         CLOUDY    46  39  76 N8        30.01R
BEVERLY        CLOUDY    40  36  86 N5        30.00S
LAWRENCE       CLOUDY    42  37  82 N5        30.03S
BEDFORD        CLOUDY    38  37  97 CALM      30.00S
BLUE HILL        N/A     44  37  76 NE12      29.98R
NORWOOD        CLOUDY    38  37  97 CALM      30.00R
MARSHFIELD     NOT AVBL
PLYMOUTH       CLOUDY    44  42  93 CALM      29.99S
TAUNTON        CLOUDY    38  37  97 CALM      30.00R
NEW BEDFORD    CLOUDY    36  35  96 CALM      29.98S
$$

MAZALL-310800-
CAPE COD AND THE ISLANDS

CITY           SKY/WX    TMP DP  RH WIND       PRES   REMARKS
FALMOUTH       CLOUDY    46  41  81 N5        29.98S
HYANNIS        MOCLDY    48  43  82 CALM      29.96S
CHATHAM        CLOUDY    47  43  86 CALM      29.98S
PROVINCETOWN   CLOUDY    50  -2  11 NE12G17   29.99S
NANTUCKET      CLEAR     45  41  86 NE5       29.97R
MARTHAS VNYRD  CLEAR     32  30  92 CALM      29.97S
$$

MAZALL-310800-
CENTRAL AND WESTERN MASSACHUSETTS

CITY           SKY/WX    TMP DP  RH WIND       PRES   REMARKS
WORCESTER      CLOUDY    43  35  73 N6        29.99S
FITCHBURG      CLOUDY    44  38  79 CALM      30.02S
ORANGE         PTCLDY    32  31  96 CALM      30.00S FOG
SPRINGFIELD    CLEAR     30  28  93 CALM      30.01S FOG
WESTFIELD      CLEAR     38  32  79 CALM      30.01S
NORTH ADAMS    CLEAR     34  31  88 CALM      30.02S
PITTSFIELD     CLEAR     30  29  96 CALM      29.99S
$$

RIZALL-310800-
RHODE ISLAND

CITY           SKY/WX    TMP DP  RH WIND       PRES   REMARKS
PROVIDENCE     CLOUDY    43  37  79 N3        30.00S
NEWPORT        CLEAR     44  37  76 N3        29.99R
BLOCK ISLAND   CLEAR     48  37  66 N10       29.98S
SMITHFIELD     CLOUDY    39  28  65 CALM      29.99S
WESTERLY       MOCLDY    37  34  89 NE3       30.00S
$$

CTZALL-310800-
CONNECTICUT

CITY           SKY/WX    TMP DP  RH WIND       PRES   REMARKS
BRADLEY INTL   CLEAR     36  32  85 CALM      30.01S
HARTFORD       PTCLDY    37  35  92 SE8       30.03R WCI  31
BRIDGEPORT     PTCLDY    45  33  63 N12       30.01S
DANBURY        CLOUDY    43  31  62 N3        30.03S
GROTON         MOCLDY    42  37  82 N8        30.00S
NEW HAVEN      CLEAR     45  34  65 N7        30.02S
CHESTER        NOT AVBL
MERIDEN        CLEAR     34  32  92 S3        30.03R
WILLIMANTIC    MOCLDY    36  33  89 CALM      30.02R
OXFORD         PTCLDY    39  28  65 N8        30.03S
$$

MEZ002-015-021-024-NHZ003-005-008-011-012-014-VTZ005-008-310800-
NORTHERN NEW ENGLAND

CITY           SKY/WX    TMP DP  RH WIND       PRES   REMARKS
PORTLAND ME    PTCLDY    35  32  88 CALM      30.03R
BANGOR ME      MOCLDY    34  32  92 CALM      30.00S
CONCORD NH     CLOUDY    39  36  89 CALM      30.01F
MANCHESTER NH  CLOUDY    44  35  70 CALM      30.00F
NASHUA NH      CLOUDY    43  39  85 CALM      30.02F
PORTSMOUTH NH  CLOUDY    40  36  84 NW6       30.01S
JAFFREY NH     PTCLDY    35  34  96 S3        30.00S
KEENE NH       CLEAR     37  30  75 CALM      30.00F
BURLINGTON VT  CLOUDY    43  32  65 CALM      30.02S
MT. WASHINGTON MOCLDY    23  12  63 W20         N/A  WCI   8
$$

NYZ052-076-310800-
EASTERN NEW YORK

CITY           SKY/WX    TMP DP  RH WIND       PRES   REMARKS
ALBANY         PTCLDY    33  30  88 CALM      30.04S
NEW YORK CITY  PTCLDY    47  37  68 N8        30.02S
$$

ANZALL-310800-
MARINE OBSERVATIONS

STATION/POSITION TIME  TEMP    WIND        PRES    VSBY  WAVE
                       AIR SEA DIR/SP/G                  HT/PER
                 (UTC) (F)     (DEG/KT/KT) (MB)    (MI)  (FT/S)
BOSTON BUOY      0650   50 54   40/ 14/ 17 1015.8R         2/ 3
BUZZARDS BAY     0700           10/  8/  9 1015.7F
NANTUCKET SOUND  0650   54 57   30/ 12/ 14 1014.4F         1
MASS BAY-STELLWA 0604   50 54   20/ 14/ 17   N/A    1 7/8  2/ 4
ISLE OF SHOALS   0700   48      40/ 14/ 17 1015.5S
S OF BLOCK IS    0608      60                N/A           2/ 7
$$

......................KEY.........................
  SKY/WX - SKY CONDITION/PRESENT WEATHER
  TMP    - TEMPERATURE IN FAHRENHEIT
  DWPT   - DEWPOINT IN FAHRENHEIT
  RH     - RELATIVE HUMIDITY IN PERCENT
  WIND   - DIRECTION AND SPEED IN MPH
  PRES   - MEAN SEA LEVEL PRESSURE IN INCHES OF HG
  WCI    - WIND CHILL INDEX
  VSB    - VISIBILITY IN MILES
  HX     - HEAT INDEX
  TC     - TEMPERATURE IN CELSIUS
  VRB    - VARIABLE WIND DIRECTION
  N/A    - NOT AVAILABLE



USA.gov is the U.S. government's official web portal to all federal, state and local government web resources and services.